Station History

Weather Underground - logo

Station Historical Data
Daily Summary for December 20, 2017 Units:  English    Metric   Both
« Previous Day
Next Day »
Daily Weekly Monthly Yearly Custom
  High: Low: Average:
Temperature: 49.9 °F 36.0 °F 44.1 °F
Dew Point: 44.1 °F 33.1 °F 38.5 °F
Humidity: 95 % 67 % 81 %
Wind Speed: 12.7 mph 0.0 mph 1.4 mph
Wind Gust: 12.7 mph - -
Wind:- - SSW
Pressure: 30.21 in 30.12 in -
Precipitation: 0.04 in    
Historical Graphs
 
 
Tabular Data for December 20, 2017
Time Temperature Dew Point Pressure Wind Wind Speed Wind Gust Humidity Rainfall Rate (Hourly)
00:03 42.2 °F 34.5 °F 30.16 in Calm     74 % 0.00 in
00:06 42.2 °F 34.5 °F 30.16 in Calm     74 % 0.00 in
00:07 42.1 °F 34.4 °F 30.16 in Calm     74 % 0.00 in
00:12 42.2 °F 34.5 °F 30.16 in Calm     74 % 0.00 in
00:17 42.0 °F 34.3 °F 30.16 in Calm     74 % 0.00 in
00:22 41.8 °F 34.5 °F 30.16 in Calm     75 % 0.00 in
00:26 41.9 °F 34.6 °F 30.16 in Calm     75 % 0.00 in
00:31 42.0 °F 34.6 °F 30.16 in Calm     75 % 0.00 in
00:36 41.9 °F 34.6 °F 30.16 in Calm     75 % 0.00 in
00:41 41.8 °F 34.5 °F 30.16 in Calm     75 % 0.00 in
00:43 41.7 °F 34.4 °F 30.16 in Calm     75 % 0.00 in
00:48 40.8 °F 34.1 °F 30.15 in Calm     77 % 0.00 in
00:50 40.4 °F 34.1 °F 30.15 in Calm     78 % 0.00 in
00:55 39.8 °F 34.1 °F 30.15 in Calm     80 % 0.00 in
00:57 39.7 °F 34.0 °F 30.15 in Calm     80 % 0.00 in
01:02 39.5 °F 34.2 °F 30.15 in Calm     81 % 0.00 in
01:07 39.6 °F 34.2 °F 30.15 in Calm     81 % 0.00 in
01:08 39.6 °F 34.2 °F 30.15 in Calm     81 % 0.00 in
01:13 39.6 °F 34.2 °F 30.15 in Calm     81 % 0.00 in
01:14 39.6 °F 34.2 °F 30.15 in Calm     81 % 0.00 in
01:19 39.7 °F 34.7 °F 30.14 in Calm     82 % 0.00 in
01:20 39.9 °F 34.5 °F 30.14 in Calm     81 % 0.00 in
01:25 40.4 °F 35.0 °F 30.14 in Calm     81 % 0.00 in
01:26 40.4 °F 35.0 °F 30.14 in Calm     81 % 0.00 in
01:31 40.7 °F 35.0 °F 30.14 in Calm     80 % 0.00 in
01:33 40.5 °F 34.8 °F 30.14 in Calm     80 % 0.00 in
01:38 39.9 °F 34.5 °F 30.13 in Calm     81 % 0.00 in
01:39 39.9 °F 34.5 °F 30.13 in Calm     81 % 0.00 in
01:44 39.6 °F 34.6 °F 30.13 in Calm     82 % 0.00 in
01:49 39.6 °F 34.9 °F 30.13 in Calm     83 % 0.00 in
01:51 39.6 °F 34.6 °F 30.13 in Calm     82 % 0.00 in
01:55 39.7 °F 34.7 °F 30.13 in Calm     82 % 0.00 in
02:00 39.7 °F 34.7 °F 30.13 in Calm     82 % 0.00 in
02:02 39.8 °F 34.8 °F 30.13 in Calm     82 % 0.00 in
02:06 39.8 °F 34.8 °F 30.13 in Calm     82 % 0.00 in
02:08 39.8 °F 34.8 °F 30.13 in Calm     82 % 0.00 in
02:13 39.8 °F 34.8 °F 30.14 in Calm     82 % 0.00 in
02:15 39.9 °F 34.5 °F 30.14 in Calm     81 % 0.00 in
02:18 40.0 °F 34.3 °F 30.14 in Calm     80 % 0.00 in
02:23 40.2 °F 34.5 °F 30.14 in Calm     80 % 0.00 in
02:26 40.3 °F 34.3 °F 30.14 in Calm     79 % 0.00 in
02:29 40.3 °F 34.0 °F 30.14 in Calm     78 % 0.00 in
02:35 40.4 °F 33.8 °F 30.14 in Calm     77 % 0.00 in
02:37 40.6 °F 33.6 °F 30.14 in Calm     76 % 0.00 in
02:40 40.7 °F 33.7 °F 30.14 in Calm     76 % 0.00 in
02:45 41.0 °F 33.7 °F 30.14 in Calm     75 % 0.00 in
02:46 41.0 °F 33.7 °F 30.14 in Calm     75 % 0.00 in
02:51 41.4 °F 33.4 °F 30.14 in Calm     73 % 0.00 in
02:53 41.6 °F 33.2 °F 30.14 in Calm     72 % 0.00 in
02:58 42.2 °F 33.1 °F 30.14 in Calm     70 % 0.00 in
03:00 42.2 °F 33.1 °F 30.14 in Calm     70 % 0.00 in
03:01 42.3 °F 33.2 °F 30.14 in Calm     70 % 0.00 in
03:05 42.4 °F 33.3 °F 30.14 in Calm     70 % 0.00 in
03:08 42.5 °F 33.4 °F 30.14 in Calm     70 % 0.00 in
03:11 42.5 °F 33.4 °F 30.14 in Calm     70 % 0.00 in
03:15 42.6 °F 33.1 °F 30.14 in Calm     69 % 0.00 in
03:18 42.6 °F 33.1 °F 30.14 in Calm     69 % 0.00 in
03:23 42.6 °F 33.1 °F 30.14 in Calm     69 % 0.00 in
03:24 42.6 °F 33.5 °F 30.14 in Calm     70 % 0.00 in
03:29 42.6 °F 33.1 °F 30.14 in Calm     69 % 0.00 in
03:32 42.7 °F 33.9 °F 30.14 in Calm     71 % 0.00 in
03:37 42.7 °F 33.9 °F 30.14 in Calm     71 % 0.00 in
03:40 42.9 °F 33.4 °F 30.15 in Calm     69 % 0.00 in
03:44 43.2 °F 33.7 °F 30.15 in Calm     69 % 0.00 in
03:45 43.3 °F 33.8 °F 30.14 in Calm     69 % 0.00 in
03:50 43.6 °F 33.4 °F 30.14 in Calm     67 % 0.00 in
03:51 43.6 °F 33.7 °F 30.14 in Calm     68 % 0.00 in
03:56 43.7 °F 33.8 °F 30.13 in Calm     68 % 0.00 in
03:59 43.8 °F 33.9 °F 30.14 in Calm     68 % 0.00 in
04:02 43.9 °F 34.0 °F 30.14 in Calm     68 % 0.00 in
04:07 43.9 °F 34.0 °F 30.14 in Calm     68 % 0.00 in
04:12 43.7 °F 34.2 °F 30.14 in Calm     69 % 0.00 in
04:17 43.5 °F 34.4 °F 30.14 in Calm     70 % 0.00 in
04:18 43.5 °F 34.7 °F 30.13 in Calm     71 % 0.00 in
04:23 43.3 °F 34.9 °F 30.13 in Calm     72 % 0.00 in
04:27 43.3 °F 34.9 °F 30.13 in Calm     72 % 0.00 in
04:32 43.5 °F 34.4 °F 30.13 in Calm     70 % 0.00 in
04:33 43.6 °F 34.5 °F 30.13 in Calm     70 % 0.00 in
04:35 43.6 °F 35.2 °F 30.13 in Calm     72 % 0.00 in
04:38 43.5 °F 35.4 °F 30.13 in Calm     73 % 0.00 in
04:48 43.6 °F 34.5 °F 30.13 in Calm     70 % 0.00 in
04:49 43.7 °F 34.6 °F 30.13 in Calm     70 % 0.00 in
04:50 43.7 °F 34.9 °F 30.13 in Calm     71 % 0.00 in
04:55 43.7 °F 34.2 °F 30.13 in Calm     69 % 0.00 in
04:56 43.8 °F 34.3 °F 30.13 in Calm     69 % 0.00 in
05:01 44.0 °F 35.6 °F 30.13 in Calm     72 % 0.00 in
05:05 43.8 °F 35.4 °F 30.13 in SSE 1.2 mph   72 % 0.00 in
05:08 43.8 °F 35.4 °F 30.13 in Calm     72 % 0.00 in
05:10 43.7 °F 35.3 °F 30.13 in Calm     72 % 0.00 in
05:21 43.6 °F 35.9 °F 30.12 in Calm     74 % 0.00 in
05:26 43.9 °F 36.5 °F 30.12 in Calm   0.1 mph 75 % 0.00 in
05:31 44.3 °F 37.2 °F 30.12 in Calm     76 % 0.00 in
05:33 44.4 °F 37.3 °F 30.12 in Calm     76 % 0.00 in
05:40 45.0 °F 37.2 °F 30.12 in SSE 1.2 mph 1.2 mph 74 % 0.00 in
05:45 45.3 °F 37.2 °F 30.13 in SE 1.2 mph 1.2 mph 73 % 0.00 in
05:46 45.3 °F 36.8 °F 30.13 in SE 1.2 mph 1.2 mph 72 % 0.00 in
05:51 45.3 °F 36.8 °F 30.13 in SE 1.2 mph   72 % 0.00 in
05:52 45.2 °F 36.7 °F 30.13 in SE 1.2 mph   72 % 0.00 in
05:56 45.2 °F 36.7 °F 30.13 in Calm     72 % 0.00 in
05:58 45.1 °F 37.0 °F 30.13 in Calm     73 % 0.00 in
06:02 45.0 °F 36.9 °F 30.14 in SE 1.2 mph   73 % 0.00 in
06:07 44.8 °F 36.7 °F 30.15 in Calm     73 % 0.00 in
06:08 44.8 °F 36.7 °F 30.15 in Calm     73 % 0.00 in
06:11 44.7 °F 36.6 °F 30.15 in Calm     73 % 0.00 in
06:14 44.7 °F 36.9 °F 30.14 in Calm     74 % 0.00 in
06:19 44.7 °F 36.9 °F 30.15 in Calm     74 % 0.00 in
06:22 44.7 °F 37.3 °F 30.15 in Calm     75 % 0.00 in
06:24 44.7 °F 37.3 °F 30.15 in Calm     75 % 0.00 in
06:28 44.9 °F 37.8 °F 30.15 in SE 1.2 mph 1.2 mph 76 % 0.00 in
06:33 45.3 °F 37.8 °F 30.15 in SE 1.2 mph   75 % 0.00 in
06:38 45.6 °F 38.1 °F 30.15 in SE 2.3 mph 2.3 mph 75 % 0.00 in
06:39 45.6 °F 38.1 °F 30.15 in SE 3.5 mph 3.5 mph 75 % 0.00 in
06:41 45.8 °F 38.3 °F 30.14 in SE 2.3 mph 2.3 mph 75 % 0.00 in
06:46 46.3 °F 38.5 °F 30.14 in SE 1.2 mph   74 % 0.00 in
06:48 46.4 °F 38.6 °F 30.14 in SE 1.2 mph 1.2 mph 74 % 0.00 in
06:50 46.6 °F 38.4 °F 30.14 in SE 1.2 mph   73 % 0.00 in
06:55 46.7 °F 38.5 °F 30.14 in SE 1.2 mph 1.2 mph 73 % 0.00 in
06:57 46.7 °F 38.5 °F 30.14 in SE 1.2 mph 1.2 mph 73 % 0.00 in
07:02 46.6 °F 38.4 °F 30.14 in SE 1.2 mph 1.2 mph 73 % 0.00 in
07:04 46.5 °F 38.3 °F 30.14 in SE 2.3 mph   73 % 0.00 in
07:07 46.4 °F 38.2 °F 30.14 in SE 2.3 mph 2.3 mph 73 % 0.00 in
07:12 46.2 °F 38.0 °F 30.14 in SE 2.3 mph 2.3 mph 73 % 0.00 in
07:13 46.2 °F 38.0 °F 30.14 in SE 2.3 mph 2.3 mph 73 % 0.00 in
07:18 46.3 °F 38.1 °F 30.14 in ESE 1.2 mph 1.2 mph 73 % 0.00 in
07:19 46.3 °F 38.1 °F 30.14 in Calm     73 % 0.00 in
07:24 46.1 °F 38.3 °F 30.14 in SE 2.3 mph 2.3 mph 74 % 0.00 in
07:29 46.0 °F 38.5 °F 30.15 in Calm     75 % 0.00 in
07:30 46.0 °F 38.5 °F 30.15 in Calm     75 % 0.00 in
07:35 45.9 °F 38.8 °F 30.15 in Calm     76 % 0.00 in
07:36 45.9 °F 38.8 °F 30.15 in Calm     76 % 0.00 in
07:41 45.8 °F 38.7 °F 30.15 in Calm     76 % 0.00 in
07:42 45.7 °F 38.6 °F 30.15 in Calm   0.1 mph 76 % 0.00 in
07:48 45.5 °F 38.7 °F 30.15 in Calm     77 % 0.00 in
07:49 45.5 °F 38.7 °F 30.16 in Calm     77 % 0.00 in
07:54 45.2 °F 38.4 °F 30.16 in Calm   0.3 mph 77 % 0.00 in
07:59 45.1 °F 38.3 °F 30.16 in ESE 1.2 mph 1.2 mph 77 % 0.00 in
08:04 44.9 °F 38.1 °F 30.16 in SE 3.5 mph 3.5 mph 77 % 0.00 in
08:08 44.7 °F 37.9 °F 30.16 in SE 1.2 mph   77 % 0.00 in
08:11 44.7 °F 37.9 °F 30.16 in SE 1.2 mph   77 % 0.00 in
08:16 44.6 °F 37.5 °F 30.16 in Calm     76 % 0.00 in
08:17 44.5 °F 37.4 °F 30.16 in SE 1.2 mph 1.2 mph 76 % 0.00 in
08:23 44.4 °F 37.3 °F 30.16 in Calm     76 % 0.00 in
08:27 44.3 °F 37.2 °F 30.16 in Calm     76 % 0.00 in
08:32 44.2 °F 37.1 °F 30.16 in Calm     76 % 0.00 in
08:34 44.2 °F 37.1 °F 30.17 in SE 1.2 mph   76 % 0.00 in
08:35 44.2 °F 37.1 °F 30.17 in Calm     76 % 0.00 in
08:40 44.3 °F 37.2 °F 30.17 in Calm     76 % 0.00 in
08:42 44.3 °F 37.2 °F 30.17 in Calm     76 % 0.00 in
08:47 44.5 °F 37.4 °F 30.16 in Calm     76 % 0.00 in
08:48 44.6 °F 37.5 °F 30.16 in SE 2.0 mph 2.0 mph 76 % 0.00 in
08:51 44.8 °F 37.7 °F 30.16 in Calm     76 % 0.00 in
08:54 45.0 °F 37.9 °F 30.16 in SE 3.5 mph 3.5 mph 76 % 0.00 in
08:59 45.1 °F 37.6 °F 30.16 in ESE 2.3 mph 2.3 mph 75 % 0.00 in
09:00 45.1 °F 37.6 °F 30.16 in ESE 2.3 mph 2.3 mph 75 % 0.00 in
09:05 45.3 °F 37.8 °F 30.16 in SE 3.5 mph 3.5 mph 75 % 0.00 in
09:06 45.3 °F 37.5 °F 30.16 in SE 1.2 mph 1.2 mph 74 % 0.00 in
09:08 45.4 °F 37.6 °F 30.16 in SE 1.2 mph 1.2 mph 74 % 0.00 in
09:14 45.6 °F 37.8 °F 30.16 in East 3.5 mph 3.5 mph 74 % 0.00 in
09:17 45.7 °F 37.5 °F 30.16 in East 3.5 mph 3.5 mph 73 % 0.00 in
09:19 45.8 °F 37.6 °F 30.16 in NNE 3.5 mph 3.5 mph 73 % 0.00 in
09:24 46.1 °F 37.9 °F 30.17 in NNE 2.3 mph   73 % 0.00 in
09:26 46.2 °F 38.0 °F 30.17 in NW 1.2 mph 1.2 mph 73 % 0.00 in
09:27 46.2 °F 38.0 °F 30.17 in NW 1.2 mph 1.2 mph 73 % 0.00 in
09:32 46.4 °F 37.9 °F 30.18 in West 2.3 mph 2.3 mph 72 % 0.00 in
09:37 46.3 °F 37.8 °F 30.19 in NW 2.3 mph 2.3 mph 72 % 0.00 in
09:38 46.3 °F 38.1 °F 30.19 in NW 2.3 mph 2.3 mph 73 % 0.00 in
09:43 45.9 °F 37.7 °F 30.19 in NW 1.2 mph 1.2 mph 73 % 0.00 in
09:44 45.8 °F 37.6 °F 30.19 in NW 1.2 mph   73 % 0.00 in
09:49 45.7 °F 37.5 °F 30.19 in NW 1.2 mph 1.2 mph 73 % 0.00 in
09:50 45.7 °F 37.5 °F 30.19 in WNW 1.2 mph 1.2 mph 73 % 0.00 in
09:55 45.7 °F 37.5 °F 30.19 in Calm     73 % 0.00 in
10:00 45.7 °F 36.8 °F 30.18 in Calm     71 % 0.00 in
10:01 45.7 °F 36.8 °F 30.18 in Calm     71 % 0.00 in
10:03 45.8 °F 36.9 °F 30.19 in Calm     71 % 0.00 in
10:08 46.0 °F 37.5 °F 30.18 in Calm     72 % 0.00 in
10:12 46.1 °F 37.2 °F 30.17 in West 2.3 mph 2.3 mph 71 % 0.00 in
10:13 46.1 °F 37.9 °F 30.18 in West 1.2 mph   73 % 0.00 in
10:18 46.3 °F 37.4 °F 30.19 in West 1.2 mph   71 % 0.00 in
10:19 46.3 °F 37.4 °F 30.19 in Calm     71 % 0.00 in
10:24 46.4 °F 37.5 °F 30.19 in WNW 1.0 mph 1.0 mph 71 % 0.00 in
10:28 46.6 °F 37.7 °F 30.20 in Calm     71 % 0.00 in
10:33 46.8 °F 37.2 °F 30.20 in NW 1.2 mph 1.2 mph 69 % 0.00 in
10:38 46.9 °F 37.6 °F 30.20 in NW 3.5 mph 3.5 mph 70 % 0.00 in
10:39 46.9 °F 38.0 °F 30.19 in NW 3.5 mph 3.5 mph 71 % 0.00 in
10:44 47.0 °F 38.1 °F 30.19 in NW 2.3 mph 2.3 mph 71 % 0.00 in
10:49 47.3 °F 38.7 °F 30.18 in NW 2.3 mph 2.3 mph 72 % 0.00 in
10:54 47.7 °F 38.8 °F 30.18 in NW 1.2 mph 1.2 mph 71 % 0.00 in
10:55 47.7 °F 39.1 °F 30.18 in NW 2.3 mph 2.3 mph 72 % 0.00 in
11:02 48.2 °F 38.9 °F 30.19 in WNW 3.5 mph 3.5 mph 70 % 0.00 in
11:05 48.4 °F 39.1 °F 30.19 in WNW 3.0 mph 3.0 mph 70 % 0.00 in
11:10 48.7 °F 39.0 °F 30.19 in NNW 3.5 mph 3.5 mph 69 % 0.00 in
11:11 48.8 °F 39.1 °F 30.19 in WNW 3.5 mph 3.5 mph 69 % 0.00 in
11:16 49.0 °F 38.9 °F 30.19 in NW 4.6 mph 4.6 mph 68 % 0.00 in
11:21 49.3 °F 39.6 °F 30.19 in NW 4.0 mph 4.0 mph 69 % 0.00 in
11:22 49.4 °F 40.0 °F 30.19 in WNW 4.6 mph 4.6 mph 70 % 0.00 in
11:27 49.3 °F 42.7 °F 30.20 in NW 9.2 mph 9.2 mph 78 % 0.00 in
11:29 49.0 °F 43.1 °F 30.19 in NW 11.5 mph 11.5 mph 80 % 0.00 in
11:34 48.4 °F 43.5 °F 30.19 in NW 10.0 mph 10.0 mph 83 % 0.00 in
11:35 48.3 °F 43.4 °F 30.20 in North 12.7 mph 12.7 mph 83 % 0.00 in
11:40 47.8 °F 43.8 °F 30.19 in NW 6.9 mph 6.9 mph 86 % 0.00 in
11:41 47.7 °F 43.7 °F 30.19 in NW 9.2 mph 9.2 mph 86 % 0.00 in
11:46 47.3 °F 43.6 °F 30.19 in NW 10.4 mph 10.4 mph 87 % 0.00 in
11:47 47.3 °F 43.9 °F 30.19 in NW 6.9 mph 6.9 mph 88 % 0.00 in
11:52 47.1 °F 44.0 °F 30.20 in WNW 10.0 mph 10.0 mph 89 % 0.00 in
11:53 47.1 °F 44.0 °F 30.19 in NW 10.4 mph 10.4 mph 89 % 0.00 in
11:58 46.9 °F 43.8 °F 30.19 in NW 5.8 mph 5.8 mph 89 % 0.00 in
12:00 46.9 °F 44.1 °F 30.19 in NW 9.2 mph 9.2 mph 90 % 0.00 in
12:05 46.8 °F 44.0 °F 30.19 in NW 3.5 mph 3.5 mph 90 % 0.00 in
12:08 46.7 °F 43.9 °F 30.19 in NNW 5.0 mph 5.0 mph 90 % 0.00 in
12:13 46.7 °F 43.9 °F 30.18 in WNW 10.4 mph 10.4 mph 90 % 0.00 in
12:17 46.5 °F 43.1 °F 30.18 in NW 5.8 mph 5.8 mph 88 % 0.00 in
12:22 46.1 °F 42.4 °F 30.17 in NNW 5.0 mph 5.0 mph 87 % 0.00 in
12:23 46.1 °F 42.4 °F 30.17 in NW 3.5 mph 3.5 mph 87 % 0.00 in
12:29 46.0 °F 42.3 °F 30.17 in NW 3.5 mph 3.5 mph 87 % 0.00 in
12:34 45.9 °F 42.5 °F 30.17 in NW 5.8 mph 5.8 mph 88 % 0.00 in
12:35 46.0 °F 42.6 °F 30.17 in NW 5.0 mph 5.0 mph 88 % 0.00 in
12:40 46.0 °F 42.6 °F 30.17 in NW 3.5 mph 3.5 mph 88 % 0.00 in
12:44 46.0 °F 42.6 °F 30.17 in NW 3.5 mph 3.5 mph 88 % 0.00 in
12:49 46.1 °F 42.7 °F 30.18 in NW 2.3 mph 2.3 mph 88 % 0.00 in
12:51 46.1 °F 42.4 °F 30.17 in NW 5.0 mph 5.0 mph 87 % 0.00 in
12:56 45.8 °F 42.2 °F 30.18 in NW 3.5 mph 3.5 mph 87 % 0.01 in
12:57 45.8 °F 42.4 °F 30.18 in NW 3.5 mph 3.5 mph 88 % 0.01 in
13:02 45.5 °F 41.9 °F 30.18 in NW 5.0 mph 5.0 mph 87 % 0.01 in
13:06 45.2 °F 41.6 °F 30.18 in NNW 6.9 mph 6.9 mph 87 % 0.02 in
13:08 45.1 °F 41.5 °F 30.18 in NW 3.5 mph 3.5 mph 87 % 0.03 in
13:12 44.9 °F 41.6 °F 30.17 in NNW 3.5 mph 3.5 mph 88 % 0.03 in
13:17 44.7 °F 41.7 °F 30.17 in NW 2.3 mph 2.3 mph 89 % 0.04 in
13:22 44.7 °F 41.9 °F 30.17 in NW 2.3 mph 2.3 mph 90 % 0.04 in
13:23 44.7 °F 41.9 °F 30.17 in NW 3.0 mph 3.0 mph 90 % 0.04 in
13:28 44.8 °F 42.0 °F 30.17 in NW 3.5 mph 3.5 mph 90 % 0.04 in
13:29 44.8 °F 42.0 °F 30.17 in NW 1.2 mph 1.2 mph 90 % 0.04 in
13:31 44.9 °F 42.4 °F 30.17 in NNW 2.3 mph 2.3 mph 91 % 0.04 in
13:35 45.0 °F 42.2 °F 30.16 in NNW 4.6 mph 4.6 mph 90 % 0.04 in
13:40 45.5 °F 43.0 °F 30.16 in WNW 3.5 mph 3.5 mph 91 % 0.04 in
13:41 45.7 °F 42.9 °F 30.16 in North 5.8 mph 5.8 mph 90 % 0.04 in
13:44 46.0 °F 43.2 °F 30.16 in NW 3.5 mph 3.5 mph 90 % 0.04 in
13:49 46.7 °F 43.9 °F 30.15 in WNW 3.5 mph 3.5 mph 90 % 0.04 in
13:50 46.8 °F 44.0 °F 30.15 in NNW 3.5 mph 3.5 mph 90 % 0.04 in
13:55 46.8 °F 43.1 °F 30.16 in NW 3.5 mph 3.5 mph 87 % 0.03 in
13:57 47.0 °F 43.3 °F 30.16 in NNW 3.5 mph 3.5 mph 87 % 0.03 in
14:01 47.4 °F 43.4 °F 30.16 in NW 5.8 mph 5.8 mph 86 % 0.03 in
14:03 47.5 °F 43.2 °F 30.16 in NW 5.0 mph 5.0 mph 85 % 0.03 in
14:08 47.8 °F 43.2 °F 30.16 in WNW 3.5 mph 3.5 mph 84 % 0.01 in
14:09 47.9 °F 43.3 °F 30.16 in WNW 3.5 mph 3.5 mph 84 % 0.01 in
14:14 48.3 °F 43.1 °F 30.16 in NW 5.8 mph 5.8 mph 82 % 0.00 in
14:15 48.3 °F 43.1 °F 30.16 in North 4.6 mph 4.6 mph 82 % 0.00 in
14:20 48.8 °F 42.9 °F 30.16 in North 4.0 mph 4.0 mph 80 % 0.00 in
14:22 48.9 °F 43.3 °F 30.16 in NW 4.0 mph 4.0 mph 81 % 0.00 in
14:23 49.0 °F 42.8 °F 30.16 in WNW 5.8 mph 5.8 mph 79 % 0.00 in
14:28 49.1 °F 42.9 °F 30.16 in NW 7.0 mph 7.0 mph 79 % 0.00 in
14:30 49.1 °F 42.5 °F 30.16 in North 6.9 mph 6.9 mph 78 % 0.00 in
14:32 49.1 °F 42.9 °F 30.16 in WNW 4.0 mph 4.0 mph 79 % 0.00 in
14:37 49.1 °F 42.9 °F 30.16 in NW 3.5 mph 3.5 mph 79 % 0.00 in
14:41 49.2 °F 43.3 °F 30.16 in NW 2.3 mph 2.3 mph 80 % 0.00 in
14:44 49.5 °F 42.9 °F 30.16 in NW 5.8 mph 5.8 mph 78 % 0.00 in
14:49 49.5 °F 42.2 °F 30.16 in NW 6.9 mph 6.9 mph 76 % 0.00 in
14:52 49.6 °F 42.3 °F 30.16 in NNW 5.8 mph 5.8 mph 76 % 0.00 in
14:54 49.6 °F 42.0 °F 30.16 in NW 6.9 mph 6.9 mph 75 % 0.00 in
14:58 49.7 °F 42.1 °F 30.16 in WSW 3.5 mph 3.5 mph 75 % 0.00 in
15:00 49.8 °F 42.2 °F 30.16 in North 2.3 mph 2.7 mph 75 % 0.00 in
15:03 49.8 °F 42.2 °F 30.16 in NW 3.5 mph 3.5 mph 75 % 0.00 in
15:08 49.8 °F 42.2 °F 30.16 in West 4.6 mph 4.6 mph 75 % 0.00 in
15:09 49.8 °F 42.2 °F 30.16 in NW 3.5 mph 3.5 mph 75 % 0.00 in
15:12 49.7 °F 42.1 °F 30.16 in NW 5.8 mph 5.8 mph 75 % 0.00 in
15:14 49.7 °F 42.1 °F 30.16 in North 3.5 mph 3.5 mph 75 % 0.00 in
15:19 49.9 °F 42.3 °F 30.16 in NW 2.0 mph 2.0 mph 75 % 0.00 in
15:20 49.9 °F 42.3 °F 30.16 in WNW 3.5 mph 3.5 mph 75 % 0.00 in
15:24 49.8 °F 41.8 °F 30.16 in NW 4.6 mph 4.6 mph 74 % 0.00 in
15:25 49.8 °F 41.8 °F 30.16 in NW 3.5 mph 3.5 mph 74 % 0.00 in
15:30 49.9 °F 41.9 °F 30.16 in NW 2.3 mph 2.3 mph 74 % 0.00 in
15:35 49.9 °F 41.9 °F 30.16 in NW 3.5 mph 3.5 mph 74 % 0.00 in
15:36 49.8 °F 41.8 °F 30.16 in NW 2.3 mph 2.3 mph 74 % 0.00 in
15:38 49.8 °F 41.8 °F 30.16 in NW 4.6 mph 4.6 mph 74 % 0.00 in
15:41 49.7 °F 41.7 °F 30.16 in NW 1.0 mph   74 % 0.00 in
15:46 49.7 °F 41.7 °F 30.16 in NW 2.3 mph 2.3 mph 74 % 0.00 in
15:47 49.7 °F 41.7 °F 30.16 in NW 1.2 mph 1.2 mph 74 % 0.00 in
15:51 49.7 °F 41.7 °F 30.15 in WNW 1.2 mph 1.2 mph 74 % 0.00 in
15:55 49.6 °F 41.7 °F 30.15 in NW 1.2 mph 1.2 mph 74 % 0.00 in
15:58 49.6 °F 41.7 °F 30.15 in WNW 1.2 mph 1.2 mph 74 % 0.00 in
16:00 49.6 °F 41.7 °F 30.15 in North 1.2 mph 1.2 mph 74 % 0.00 in
16:03 49.5 °F 41.6 °F 30.15 in WNW 2.3 mph 2.3 mph 74 % 0.00 in
16:08 49.5 °F 41.6 °F 30.15 in NW 1.2 mph   74 % 0.00 in
16:12 49.4 °F 41.5 °F 30.15 in Calm     74 % 0.00 in
16:14 49.3 °F 41.7 °F 30.15 in WNW 2.3 mph 2.3 mph 75 % 0.00 in
16:19 49.2 °F 41.6 °F 30.15 in North 1.2 mph 1.2 mph 75 % 0.00 in
16:21 49.1 °F 41.5 °F 30.15 in Calm     75 % 0.00 in
16:22 49.1 °F 41.5 °F 30.15 in NNE 1.0 mph 1.0 mph 75 % 0.00 in
16:27 48.9 °F 41.3 °F 30.15 in NNE 1.2 mph 1.2 mph 75 % 0.00 in
16:28 48.9 °F 41.3 °F 30.15 in Calm     75 % 0.00 in
16:33 48.7 °F 41.5 °F 30.15 in Calm     76 % 0.00 in
16:38 48.3 °F 41.1 °F 30.15 in Calm     76 % 0.00 in
16:43 47.9 °F 41.0 °F 30.15 in Calm     77 % 0.00 in
16:44 47.7 °F 40.8 °F 30.15 in Calm     77 % 0.00 in
16:49 47.2 °F 41.0 °F 30.15 in Calm     79 % 0.00 in
16:50 47.1 °F 40.9 °F 30.15 in Calm     79 % 0.00 in
16:51 47.0 °F 40.8 °F 30.15 in Calm     79 % 0.00 in
16:56 46.4 °F 40.9 °F 30.15 in Calm     81 % 0.00 in
16:57 46.3 °F 40.8 °F 30.15 in Calm     81 % 0.00 in
17:02 45.9 °F 40.7 °F 30.15 in Calm     82 % 0.00 in
17:03 45.7 °F 40.5 °F 30.16 in Calm     82 % 0.00 in
17:08 45.3 °F 40.4 °F 30.16 in Calm     83 % 0.00 in
17:13 45.0 °F 40.5 °F 30.16 in Calm     84 % 0.00 in
17:15 44.9 °F 40.4 °F 30.16 in Calm     84 % 0.00 in
17:22 44.6 °F 40.4 °F 30.16 in Calm     85 % 0.00 in
17:27 44.5 °F 40.6 °F 30.16 in Calm     86 % 0.00 in
17:32 44.4 °F 40.5 °F 30.16 in Calm     86 % 0.00 in
17:35 44.3 °F 40.4 °F 30.16 in Calm     86 % 0.00 in
17:39 44.1 °F 40.2 °F 30.16 in Calm     86 % 0.00 in
17:40 44.1 °F 40.2 °F 30.16 in Calm     86 % 0.00 in
17:45 43.8 °F 40.2 °F 30.16 in Calm     87 % 0.00 in
17:50 43.4 °F 40.1 °F 30.16 in Calm     88 % 0.00 in
17:53 43.2 °F 39.9 °F 30.16 in Calm     88 % 0.00 in
17:54 43.1 °F 39.8 °F 30.16 in Calm     88 % 0.00 in
17:59 42.7 °F 39.4 °F 30.16 in Calm     88 % 0.00 in
18:03 42.5 °F 39.5 °F 30.16 in Calm     89 % 0.00 in
18:04 42.4 °F 39.4 °F 30.16 in Calm     89 % 0.00 in
18:09 42.4 °F 39.7 °F 30.17 in Calm     90 % 0.00 in
18:10 42.4 °F 39.7 °F 30.17 in Calm     90 % 0.00 in
18:12 42.4 °F 39.7 °F 30.17 in Calm     90 % 0.00 in
18:16 42.6 °F 39.9 °F 30.17 in Calm     90 % 0.00 in
18:22 42.8 °F 40.1 °F 30.17 in Calm     90 % 0.00 in
18:27 42.8 °F 39.8 °F 30.18 in Calm     89 % 0.00 in
18:28 42.8 °F 40.1 °F 30.18 in North 1.2 mph   90 % 0.00 in
18:33 42.9 °F 40.2 °F 30.18 in Calm     90 % 0.00 in
18:38 43.0 °F 40.3 °F 30.18 in Calm     90 % 0.00 in
18:43 43.1 °F 40.4 °F 30.18 in Calm     90 % 0.00 in
18:44 43.1 °F 40.4 °F 30.18 in Calm     90 % 0.00 in
18:47 43.1 °F 40.4 °F 30.18 in North 1.2 mph 1.2 mph 90 % 0.00 in
18:50 43.1 °F 40.4 °F 30.18 in Calm     90 % 0.00 in
18:54 43.1 °F 40.7 °F 30.19 in Calm     91 % 0.00 in
18:56 43.1 °F 40.7 °F 30.19 in Calm     91 % 0.00 in
19:01 43.2 °F 40.8 °F 30.19 in Calm     91 % 0.00 in
19:06 43.3 °F 40.6 °F 30.19 in Calm     90 % 0.00 in
19:07 43.3 °F 40.6 °F 30.19 in Calm     90 % 0.00 in
19:12 43.5 °F 40.8 °F 30.19 in Calm     90 % 0.00 in
19:16 43.6 °F 40.9 °F 30.19 in Calm     90 % 0.00 in
19:21 43.7 °F 41.0 °F 30.19 in Calm     90 % 0.00 in
19:23 43.8 °F 41.1 °F 30.19 in Calm     90 % 0.00 in
19:28 43.9 °F 41.2 °F 30.19 in Calm     90 % 0.00 in
19:29 43.9 °F 41.2 °F 30.19 in Calm     90 % 0.00 in
19:34 44.0 °F 41.3 °F 30.19 in Calm     90 % 0.00 in
19:36 44.0 °F 41.0 °F 30.19 in Calm     89 % 0.00 in
19:38 44.0 °F 41.0 °F 30.19 in Calm     89 % 0.00 in
19:42 44.0 °F 41.3 °F 30.20 in Calm     90 % 0.00 in
19:47 43.9 °F 41.2 °F 30.20 in Calm     90 % 0.00 in
19:48 43.9 °F 41.2 °F 30.20 in Calm     90 % 0.00 in
19:51 43.8 °F 41.1 °F 30.20 in Calm     90 % 0.00 in
19:56 43.6 °F 40.9 °F 30.20 in NNE 1.2 mph   90 % 0.00 in
19:58 43.5 °F 40.8 °F 30.20 in NNE 1.2 mph 1.2 mph 90 % 0.00 in
20:03 43.2 °F 40.5 °F 30.20 in NNE 2.3 mph 2.3 mph 90 % 0.00 in
20:05 43.1 °F 40.4 °F 30.20 in NNE 3.5 mph 3.5 mph 90 % 0.00 in
20:10 42.9 °F 40.5 °F 30.21 in NNE 1.2 mph   91 % 0.00 in
20:14 42.8 °F 40.4 °F 30.20 in NNE 1.2 mph   91 % 0.00 in
20:19 42.5 °F 40.1 °F 30.20 in Calm     91 % 0.00 in
20:20 42.4 °F 40.0 °F 30.20 in NNE 1.2 mph 1.2 mph 91 % 0.00 in
20:25 42.2 °F 39.8 °F 30.20 in Calm     91 % 0.00 in
20:26 42.1 °F 39.7 °F 30.20 in Calm     91 % 0.00 in
20:29 42.0 °F 39.6 °F 30.20 in Calm   0.1 mph 91 % 0.00 in
20:34 41.8 °F 39.6 °F 30.20 in Calm     92 % 0.00 in
20:39 41.6 °F 39.4 °F 30.20 in NNE 1.2 mph 1.2 mph 92 % 0.00 in
20:41 41.5 °F 39.3 °F 30.20 in NNE 1.2 mph   92 % 0.00 in
20:46 41.3 °F 39.2 °F 30.20 in NNE 2.3 mph 2.3 mph 92 % 0.00 in
20:51 41.1 °F 39.0 °F 30.20 in NNE 1.2 mph 1.2 mph 92 % 0.00 in
20:56 41.0 °F 39.1 °F 30.20 in NNE 1.0 mph   93 % 0.00 in
21:01 40.8 °F 38.9 °F 30.21 in NNE 1.2 mph 1.2 mph 93 % 0.00 in
21:05 40.6 °F 38.7 °F 30.21 in Calm     93 % 0.00 in
21:10 40.4 °F 38.5 °F 30.21 in NNE 1.2 mph 1.2 mph 93 % 0.00 in
21:13 40.4 °F 38.5 °F 30.20 in NNE 1.2 mph 1.2 mph 93 % 0.00 in
21:20 40.3 °F 38.4 °F 30.20 in NNE 1.2 mph 1.2 mph 93 % 0.00 in
21:25 40.1 °F 38.2 °F 30.20 in NNE 1.2 mph   93 % 0.00 in
21:26 40.1 °F 38.2 °F 30.20 in NNE 1.2 mph 1.2 mph 93 % 0.00 in
21:31 39.9 °F 38.0 °F 30.20 in NNE 1.2 mph 1.2 mph 93 % 0.00 in
21:32 39.9 °F 38.0 °F 30.20 in NNE 1.2 mph   93 % 0.00 in
21:37 39.8 °F 38.2 °F 30.20 in Calm     94 % 0.00 in
21:38 39.7 °F 38.1 °F 30.20 in Calm     94 % 0.00 in
21:43 39.6 °F 38.0 °F 30.20 in NNE 1.2 mph   94 % 0.00 in
21:44 39.6 °F 38.0 °F 30.20 in Calm     94 % 0.00 in
21:45 39.5 °F 37.9 °F 30.20 in NNE 1.2 mph   94 % 0.00 in
21:50 39.3 °F 37.7 °F 30.20 in Calm     94 % 0.00 in
21:54 39.3 °F 37.7 °F 30.20 in Calm     94 % 0.00 in
21:55 39.3 °F 37.7 °F 30.20 in Calm     94 % 0.00 in
21:59 39.1 °F 37.5 °F 30.20 in NNE 1.2 mph   94 % 0.00 in
22:01 39.1 °F 37.5 °F 30.20 in Calm     94 % 0.00 in
22:06 39.1 °F 37.5 °F 30.20 in Calm     94 % 0.00 in
22:07 39.1 °F 37.5 °F 30.20 in Calm     94 % 0.00 in
22:13 39.1 °F 37.5 °F 30.20 in NNE 1.2 mph 1.2 mph 94 % 0.00 in
22:16 39.1 °F 37.5 °F 30.20 in NNE 1.2 mph 1.2 mph 94 % 0.00 in
22:21 39.1 °F 37.5 °F 30.21 in NNE 1.2 mph   94 % 0.00 in
22:26 38.9 °F 37.3 °F 30.21 in NNE 1.2 mph 1.2 mph 94 % 0.00 in
22:31 38.7 °F 37.1 °F 30.21 in NNE 1.2 mph 1.2 mph 94 % 0.00 in
22:33 38.7 °F 37.1 °F 30.21 in NNE 1.2 mph   94 % 0.00 in
22:38 38.7 °F 37.4 °F 30.21 in NNE 1.2 mph 1.2 mph 95 % 0.00 in
22:39 38.8 °F 37.5 °F 30.21 in NNE 3.5 mph 3.5 mph 95 % 0.00 in
22:42 38.8 °F 37.5 °F 30.21 in NNE 1.2 mph 1.2 mph 95 % 0.00 in
22:45 38.8 °F 37.5 °F 30.21 in NNE 1.2 mph 1.2 mph 95 % 0.00 in
22:50 38.7 °F 37.4 °F 30.21 in NNE 1.2 mph   95 % 0.00 in
22:51 38.7 °F 37.4 °F 30.21 in Calm     95 % 0.00 in
22:56 38.5 °F 37.2 °F 30.21 in Calm     95 % 0.00 in
22:57 38.5 °F 37.2 °F 30.21 in Calm     95 % 0.00 in
23:01 38.3 °F 37.0 °F 30.21 in NNE 1.2 mph   95 % 0.00 in
23:06 38.1 °F 36.8 °F 30.21 in Calm     95 % 0.00 in
23:07 38.1 °F 36.8 °F 30.21 in Calm     95 % 0.00 in
23:11 37.9 °F 36.6 °F 30.21 in Calm     95 % 0.00 in
23:13 37.9 °F 36.6 °F 30.21 in Calm     95 % 0.00 in
23:18 37.6 °F 36.0 °F 30.21 in Calm     94 % 0.00 in
23:21 37.4 °F 36.1 °F 30.21 in Calm     95 % 0.00 in
23:24 37.2 °F 35.6 °F 30.21 in Calm     94 % 0.00 in
23:29 36.9 °F 35.3 °F 30.21 in Calm     94 % 0.00 in
23:34 36.7 °F 35.4 °F 30.21 in Calm     95 % 0.00 in
23:35 36.7 °F 35.4 °F 30.21 in Calm     95 % 0.00 in
23:40 36.4 °F 35.1 °F 30.21 in Calm     95 % 0.00 in
23:41 36.3 °F 35.0 °F 30.21 in Calm     95 % 0.00 in
23:46 36.1 °F 34.8 °F 30.21 in Calm     95 % 0.00 in
23:50 36.1 °F 34.8 °F 30.21 in Calm     95 % 0.00 in
23:52 36.0 °F 34.7 °F 30.21 in Calm     95 % 0.00 in
23:57 36.1 °F 34.8 °F 30.21 in Calm     95 % 0.00 in
23:59 36.2 °F 34.9 °F 30.21 in Calm     95 % 0.00 in
Park Place, Exeter, Tulare County, California, USA
Compliments of Weather Underground - 3.5 mb